This demonstration page uses our WeatherBlox Daily Observations layout. Learn more.

Left ArrowRight Arrow

30.21309, -93.2044

Hourly Observations for January 2, 2023

Temp ( °F °C ) Dew Point ( °F °C ) Humidity (%) Winds ( mph kmh ) Pressure ( in mb ) Visibility ( mi km ) Precip ( " mm )
12:15 am 00:15 Cloudy with Fog 69 20.5 68 19.8 96 96 SSE 9 15 29.97 1015 1 1 0.00 0.00
12:35 am 00:35 Cloudy with Fog 69 20.7 68 20.1 96 96 SSE 10 17 29.97 1015 1 1 0.00 0.00
12:55 am 00:55 Cloudy with Mist and Fog 70 20.9 69 20.3 96 96 SSE 10 17 29.97 1015 1 1 0.00 0.00
1:15 am 01:15 Cloudy with Mist and Fog 70 21.1 69 20.5 96 96 SSE 9 15 29.96 1015 1 1 0.00 0.00
1:35 am 01:35 Cloudy with Mist and Fog 70 21.2 69 20.6 96 96 S 13 20 29.96 1015 1 1 0.00 0.00
1:55 am 01:55 Cloudy with Mist and Fog 70 21.1 69 20.5 96 96 S 8 13 29.96 1015 2 3 0.00 0.00
2:15 am 02:15 Cloudy with Mist and Fog 70 21 69 20.4 96 96 SSE 10 17 29.96 1015 4 6 0.00 0.00
2:35 am 02:35 Cloudy with Mist and Fog 70 21.1 69 20.5 96 96 SSE 9 15 29.95 1014 5 8 0.00 0.00
2:55 am 02:55 Cloudy with Mist and Fog 70 21.2 69 20.6 96 96 SSE 9 15 29.95 1014 7 11 0.00 0.00
3:15 am 03:15 Cloudy 70 21.3 69 20.6 96 96 SSE 12 19 29.95 1014 10 16 0.00 0.00
3:35 am 03:35 Cloudy 70 21.1 69 20.4 96 96 S 12 19 29.95 1014 7 11 0.00 0.00
3:55 am 03:55 Cloudy 70 21.3 69 20.6 96 96 S 12 19 29.96 1015 7 11 0.00 0.00
4:15 am 04:15 Cloudy with Mist and Fog 70 21.3 69 20.6 96 96 S 12 19 29.96 1015 4 6 0.00 0.00
4:35 am 04:35 Cloudy with Mist and Fog 70 21.3 69 20.6 96 96 S 12 19 29.96 1015 3 4 0.00 0.00
4:55 am 04:55 Cloudy with Mist and Fog 70 21 70 21 100 100 S 13 20 29.96 1015 5 8 0.00 0.00
5:15 am 05:15 Cloudy 71 21.5 69 20.8 96 96 S 13 20 29.96 1015 7 11 0.00 0.00
5:35 am 05:35 Cloudy 71 21.5 69 20.7 95 95 S 12 19 29.97 1015 10 16 0.00 0.00
6:00 am 06:00 Mostly Cloudy 72 22 70 21 94 94 S 12 19 29.97 1015 10 16 0.00 0.00
6:45 am 06:45 Cloudy with Mist and Fog 72 22 70 21 94 94 S 15 24 29.98 1015 5 8 0.00 0.00
7:45 am 07:45 Cloudy with Mist and Fog 72 22 70 21 94 94 S 14 22 30.00 1016 6 10 0.00 0.00
8:46 am 08:46 Cloudy with Mist and Fog 72 22 70 21 94 94 S 14 22 30.00 1016 6 10 0.00 0.00
9:55 am 09:55 Mostly Cloudy 77 25 70 21 79 79 S 20 31 30.00 1016 10 16 0.00 0.00
10:46 am 10:46 Cloudy 75 24 70 21 83 83 S 20 31 30.01 1016 10 16 0.00 0.00
11:45 am 11:45 Cloudy 79 26 70 21 74 74 S 21 33 29.98 1015 10 16 0.00 0.00
12:45 pm 12:45 Cloudy 77 25 70 21 79 79 S 20 31 29.94 1014 7 11 0.00 0.00
1:53 pm 13:53 Cloudy 77 25 70 21 79 79 S 22 35 29.90 1013 7 11 0.00 0.00
3:53 pm 15:53 Cloudy with Mist and Fog 75 24 70 21 83 83 S 22 35 29.86 1011 6 10 0.00 0.00
4:51 pm 16:51 Cloudy with Mist and Fog 73 23 70 21 89 89 S 24 39 29.85 1011 6 10 0.00 0.00
5:55 pm 17:55 Cloudy 73 23 70 21 89 89 S 22 35 29.87 1012 10 16 0.00 0.00
6:46 pm 18:46 Cloudy 72 22 70 21 94 94 S 21 33 29.86 1011 10 16 0.00 0.00
7:51 pm 19:51 Cloudy 72 22 70 21 94 94 S 21 33 29.86 1011 10 16 0.00 0.00
8:55 pm 20:55 Cloudy 72 22 70 21 94 94 S 20 31 29.88 1012 10 16 0.00 0.00
9:48 pm 21:48 Cloudy 72 22 70 21 94 94 S 18 30 29.87 1012 10 16 0.00 0.00
10:15 pm 22:15 Cloudy 72 22.2 69 20.5 90 90 S 17 28 29.88 1012 10 16 0.00 0.00
10:35 pm 22:35 Cloudy 72 22.2 69 20.5 90 90 S 21 33 29.88 1012 10 16 0.00 0.00
10:55 pm 22:55 Cloudy 72 22.1 69 20.5 91 91 S 20 31 29.88 1012 10 16 0.00 0.00
11:15 pm 23:15 Cloudy 72 22.2 69 20.5 90 90 S 17 28 29.88 1012 10 16 0.00 0.00
11:35 pm 23:35 Cloudy 72 22.2 69 20.5 90 90 SSW 16 26 29.89 1012 10 16 0.00 0.00
11:55 pm 23:55 Cloudy with Drizzle 71 21.8 69 20.3 91 91 S 15 24 29.89 1012 7 11 0.00 0.00

Powered by AerisWeather